Tracking 31032 objects as of 14-Jul-2025
HD Live streaming from Space Station
objects crossing your sky now

STARLINK-5865

Track STARLINK-5865 now!
10-day predictions
STARLINK-5865 is classified as:


NORAD ID: 57053
Int'l Code: 2023-088F
Perigee: 565.4 km
Apogee: 567.1 km
Inclination: 43.0 °
Period: 95.8 minutes
Semi major axis: 6937 km
RCS: Unknown
Launch date: June 22, 2023
Source: United States (US)
Launch site: AIR FORCE WESTERN TEST RANGE (AFWTR)
Your satellite tracking list
Your tracking list is empty




NASA's NSSDC Master Catalog

Two Line Element Set (TLE):
1 57053U 23088F   25194.79866841 -.00001402  00000-0 -88762-4 0  9995
2 57053  43.0042 325.6037 0001250 266.8620  93.2080 15.02526999114432
Source of the keplerian elements: AFSPC